Tracking 30692 objects as of 16-Jun-2025
HD Live streaming from Space Station
objects crossing your sky now

CZ-4 DEB

Track CZ-4 DEB now!
10-day predictions


NORAD ID: 20866
Int'l Code: 1990-081AE
Perigee: 821.4 km
Apogee: 920.5 km
Inclination: 98.9 °
Period: 102.2 minutes
Semi major axis: 7241 km
RCS: 0.0056 m2 (small)
Launch date: September 3, 1990
Source: People's Republic of China (PRC)
Launch site: Taiyaun Space Center, China (TSC)

Note: This is SATELLITE DEBRIS
Your satellite tracking list
Your tracking list is empty




NASA's NSSDC Master Catalog

Two Line Element Set (TLE):
1 20866U 90081AE  25166.49344706  .00000343  00000-0  22046-3 0  9994
2 20866  98.8982 145.1866 0068395 262.2204 226.1476 14.08706214775851
Source of the keplerian elements: AFSPC